Flag for Canada Weather past 2 weeks in MD of Lunenburg, Nova Scotia, Canada

Now
67 °F

Mild.


Feels Like: 67 °F
Forecast: 64 / 77 °F
Wind: 21 mph from Southwest

Location: McNabs Island - AUT

Current Time: Jul 31, 2015 at 8:51:56 AM

Latest Report: Jul 31, 2015 at 8:00 AM


Visibility: N/A

Pressure: 29.75 "Hg

Humidity: 93%

Dew point: 65 °F

Location of MD of LunenburgLocation

Historic Weather in MD of Lunenburg — Graph

°F

MD of Lunenburg temperature yesterday

Maximum temperature yesterday: 73 °F (at 5:00 PM)
Minimum temperature yesterday: 58 °F (at 6:00 AM)
Average temperature yesterday: 64 °F

Past Weeks' High & Low Weather Summary

 TemperatureHumidityPressure
High80 °F (Jul 29, 5:00 PM)100% (Jul 19, 8:00 PM)30.14 "Hg (Jul 19, 8:00 PM)
Low54 °F (Jul 17, 6:00 AM)35% (Jul 17, 5:00 PM)29.50 "Hg (Jul 22, 5:00 PM)
Average63 °F86%29.88 "Hg
* Reported Jul 16 7:00 AM — Jul 31 7:00 AM, MD of Lunenburg, Weather by CustomWeather, © 2015

Note: Actual official high and low records may vary slightly from our data, if they occured in-between our weather recording intervals... More about our weather records

Advertising

MD of Lunenburg weather history for previous 24 hours

 ConditionsComfort  
Time TempWeatherWind HumidityBarometerVisibility
7:00 AM
Fri, Jul 31
64 °FMild.13 mph100%29.74 "HgN/A
6:00 AM65 °FMild.16 mph100%29.75 "HgN/A
5:00 AM66 °FMild.9 mph98%29.75 "HgN/A
4:00 AM66 °FMild.5 mph92%29.76 "HgN/A
3:00 AM65 °FMild.9 mph98%29.78 "HgN/A
2:00 AM66 °FMild.6 mph98%29.80 "HgN/A
1:00 AM66 °FMild.12 mph92%29.82 "HgN/A
12:00 AM66 °FMild.8 mph96%29.83 "HgN/A
11:00 PM
Thu, Jul 30
65 °FMild.7 mph94%29.85 "HgN/A
10:00 PM65 °FMild.5 mph93%29.86 "HgN/A
9:00 PM66 °FMild.6 mph89%29.85 "HgN/A
8:00 PM67 °FMild.7 mph86%29.86 "HgN/A
7:00 PM68 °FMild.8 mph80%29.86 "HgN/A
6:00 PM72 °FMild.8 mph66%29.85 "HgN/A
5:00 PM73 °FMild.12 mph64%29.85 "HgN/A
4:00 PM67 °FMild.14 mph84%29.86 "HgN/A
3:00 PM66 °FMild.15 mph85%29.87 "HgN/A
2:00 PM67 °FMild.13 mph83%29.89 "HgN/A
1:00 PM66 °FMild.12 mph83%29.89 "HgN/A
12:00 PM70 °FMild.2 mph69%29.90 "HgN/A
11:00 AM65 °FMild.5 mph81%29.91 "HgN/A
10:00 AM63 °FMild.3 mph86%29.91 "HgN/A
9:00 AM60 °FCool.2 mph92%29.91 "HgN/A
8:00 AM59 °FCool.3 mph92%29.91 "HgN/A
Weather by CustomWeather, © 2015

See weather overviewHow to use our weather pages